Location: Gleizolles
(44.4833°N, 6.7667°E)
Time: 01:24:51
(UTC+00:00)

Courier 1B - Visible Passes

Search period start: 13 June 2024 00:00
Search period end: 23 June 2024 00:00
Orbit: 962 x 1208 km, 28.3° (Epoch: 12 June)

Date Brightness Start Highest point End Pass type
(mag) Time Alt. Az. Time Alt. Az. Time Alt. Az.
14 Jun 9.5 03:00:51 10° SSW 03:05:34 17° SSE 03:10:18 10° SE visible
15 Jun 9.5 02:08:46 11° S 02:11:55 14° SSE 02:15:44 10° SE visible
16 Jun 9.7 01:18:00 11° SSE 01:18:17 11° SSE 01:20:22 10° SE visible
16 Jun 9.3 03:05:46 10° SW 03:11:14 21° S 03:16:45 10° SE visible
17 Jun 9.3 02:14:06 14° SSW 02:17:32 19° SSE 02:22:37 10° SE visible
18 Jun 9.3 01:23:20 16° SSE 01:23:52 16° SSE 01:28:14 10° SE visible
18 Jun 9.1 03:11:12 10° SW 03:16:57 23° S 03:22:47 10° SE visible
19 Jun 9.7 00:32:35 11° SE 00:32:35 11° SE 00:33:24 10° SE visible
19 Jun 9.1 02:19:27 15° SSW 02:23:13 22° S 02:28:51 10° SE visible
20 Jun 9.0 01:28:44 20° S 01:29:33 20° SSE 01:34:46 10° SE visible
21 Jun 9.4 00:38:02 15° SE 00:38:02 15° SE 00:40:31 10° SE visible
21 Jun 9.0 02:24:55 15° SW 02:28:57 23° S 02:34:43 10° SE visible
22 Jun 8.9 01:34:18 21° S 01:35:16 22° S 01:40:50 10° SE visible
